Weather History for Ashtabula, OH

Change the Weather History Date:

Wednesday, January 1, 2014

  Actual Average (KYNG) Record (KYNG)
Temperature  
Mean Temperature 19 °F 26 °F  
Max Temperature 21 °F 33 °F 65 °F (1985)
Min Temperature 17 °F 20 °F -1 °F (1968)
Degree Days  
Heating Degree Days 46 39  
Month to date heating degree days 39  
Since 1 July heating degree days 2445  
Cooling Degree Days 0 0  
Month to date cooling degree days 0  
Year to date cooling degree days 0  
Moisture  
Dew Point 14 °F    
Average Humidity 81    
Maximum Humidity 88    
Minimum Humidity 74    
Precipitation  
Precipitation 0.00 in 0.09 in 0.71 in (1964)
Month to date precipitation 0.09  
Year to date precipitation 0.09  
Snow  
Snow 0.00 in 0.50 in - ()
Month to date snowfall 0.5  
Since 1 July snowfall 19.9  
Snow Depth -    
Sea Level Pressure  
Sea Level Pressure 30.30 in    
Wind  
Wind Speed 4 mph (East)    
Max Wind Speed 9 mph    
Max Gust Speed -    
Visibility 3 miles    
Events Snow    
T = Trace of Precipitation, MM = Missing Value Source: NWS Daily Summary

Daily Weather History Graph

Daily Weather History Graph

Search for Another Location

Airport:

Trip Planner

Search our weather history database for the weather conditions in past years. The results will help you decide how hot, cold, wet, or windy it might be!

Date:

Astronomy

Jan. 01, 2014 Rise Set
Actual Time 7:50 AM EST 5:02 PM EST
Civil Twilight 7:18 AM EST 5:34 PM EST
Nautical Twilight 6:43 AM EST 6:09 PM EST
Astronomical Twilight 6:09 AM EST 6:43 PM EST
Moon 7:38 AM EST 5:47 PM EST
Length of Visible Light 10h 15m
Length of Day
9h 12m
New Moon, 0% of the Moon is Illuminated
Jan 1
New Moon
Jan 7
First Quarter
Jan 15
Full
Jan 24
Last Quarter
Jan 30
New

Hourly Weather History & Observations

Time (EST) Temp. Windchill Dew Point Humidity Pressure Visibility Wind Dir Wind Speed Gust Speed Precip Events Conditions
12:17 AM 17.6 °F 9.3 °F 12.2 °F 79% 30.28 in 2.0 mi WSW 5.8 mph - 0.00 in Snow Light Snow
12:31 AM 17.6 °F 9.3 °F 12.2 °F 79% 30.29 in 1.8 mi WSW 5.8 mph - 0.00 in Snow Light Snow
12:53 AM 18.0 °F 9.8 °F 12.9 °F 81% 30.34 in 1.8 mi WSW 5.8 mph - 0.00 in Snow Light Snow
1:53 AM 18.0 °F 12.7 °F 14.0 °F 84% 30.34 in 1.2 mi WSW 3.5 mph - 0.00 in Snow Light Snow
2:53 AM 18.0 °F - 14.0 °F 84% 30.35 in 1.5 mi Calm Calm - 0.00 in Snow Light Snow
3:32 AM 17.6 °F 12.3 °F 14.0 °F 86% 30.30 in 2.5 mi SSW 3.5 mph - 0.00 in Snow Light Snow
3:50 AM 17.6 °F 12.3 °F 14.0 °F 86% 30.29 in 3.0 mi SSW 3.5 mph - 0.00 in Snow Light Snow
3:53 AM 18.0 °F 12.7 °F 14.0 °F 84% 30.34 in 3.0 mi SW 3.5 mph - 0.00 in Snow Light Snow
4:04 AM 17.6 °F 12.3 °F 14.0 °F 86% 30.29 in 2.5 mi SSW 3.5 mph - 0.00 in Snow Light Snow
4:15 AM 17.6 °F 10.7 °F 14.0 °F 86% 30.28 in 3.0 mi SSW 4.6 mph - 0.00 in Snow Light Snow
4:30 AM 17.6 °F 12.3 °F 14.0 °F 86% 30.28 in 2.5 mi SSW 3.5 mph - 0.00 in Snow Light Snow
4:43 AM 17.6 °F - 14.0 °F 86% 30.28 in 2.0 mi Calm Calm - 0.00 in Snow Light Snow
4:53 AM 18.0 °F 12.7 °F 14.0 °F 84% 30.33 in 2.5 mi SSW 3.5 mph - 0.00 in Snow Light Snow
5:02 AM 17.6 °F 12.3 °F 14.0 °F 86% 30.28 in 3.0 mi SSW 3.5 mph - 0.00 in Snow Light Snow
5:18 AM 17.6 °F 10.7 °F 14.0 °F 86% 30.28 in 2.0 mi South 4.6 mph - 0.00 in Snow Light Snow
5:30 AM 17.6 °F 12.3 °F 14.0 °F 86% 30.28 in 2.0 mi South 3.5 mph - 0.00 in Snow Light Snow
5:49 AM 17.6 °F 12.3 °F 14.0 °F 86% 30.29 in 1.8 mi South 3.5 mph - 0.00 in Snow Light Snow
5:53 AM 18.0 °F 11.1 °F 14.0 °F 84% 30.33 in 2.0 mi South 4.6 mph - 0.00 in Snow Light Snow
6:39 AM 17.6 °F 10.7 °F 14.0 °F 86% 30.30 in 2.5 mi SSW 4.6 mph - 0.00 in Snow Light Snow
6:48 AM 17.6 °F 12.3 °F 14.0 °F 86% 30.29 in 3.0 mi SSW 3.5 mph - 0.00 in Snow Light Snow
6:53 AM 18.0 °F 12.7 °F 14.0 °F 84% 30.35 in 2.5 mi SSW 3.5 mph - 0.00 in Snow Light Snow
7:12 AM 17.6 °F 10.7 °F 14.0 °F 86% 30.29 in 1.8 mi SSW 4.6 mph - 0.00 in Snow Light Snow
7:26 AM 17.6 °F - 14.0 °F 86% 30.29 in 2.0 mi Calm Calm - 0.00 in Snow Light Snow
7:40 AM 17.6 °F - 14.0 °F 86% 30.30 in 3.0 mi Calm Calm - 0.00 in Snow Light Snow
7:53 AM 18.0 °F - 14.0 °F 84% 30.35 in 3.0 mi Calm Calm - 0.00 in Snow Light Snow
8:00 AM 17.6 °F - 14.0 °F 86% 30.31 in 2.0 mi Calm Calm - 0.00 in Snow Light Snow
8:16 AM 17.6 °F - 14.0 °F 86% 30.31 in 1.5 mi Calm Calm - 0.00 in Snow Light Snow
8:25 AM 17.6 °F - 14.0 °F 86% 30.31 in 1.0 mi Calm Calm - 0.00 in Snow Light Snow
8:35 AM 17.6 °F - 14.0 °F 86% 30.32 in 1.2 mi Calm Calm - 0.00 in Snow Light Snow
8:43 AM 17.6 °F - 14.0 °F 86% 30.32 in 1.8 mi Calm Calm - 0.00 in Snow Light Snow
8:53 AM 19.0 °F - 15.1 °F 85% 30.37 in 1.8 mi Calm Calm - 0.00 in Snow Light Snow
9:39 AM 19.4 °F - 15.8 °F 86% 30.33 in 2.5 mi Calm Calm - 0.00 in Snow Light Snow
9:46 AM 19.4 °F - 15.8 °F 86% 30.33 in 3.0 mi Calm Calm - 0.00 in Snow Light Snow
9:53 AM 19.0 °F - 16.0 °F 88% 30.38 in 2.5 mi Calm Calm - 0.00 in Snow Light Snow
10:15 AM 19.4 °F - 15.8 °F 86% 30.34 in 1.8 mi Calm Calm - 0.00 in Snow Light Snow
10:22 AM 19.4 °F - 15.8 °F 86% 30.34 in 2.5 mi Calm Calm - 0.00 in Snow Light Snow
10:38 AM 19.4 °F - 15.8 °F 86% 30.34 in 2.0 mi Calm Calm - 0.00 in Snow Light Snow
10:45 AM 19.4 °F - 15.8 °F 86% 30.34 in 1.5 mi Calm Calm - 0.00 in Snow Light Snow
10:53 AM 19.9 °F - 15.1 °F 81% 30.39 in 1.5 mi Calm Calm - 0.00 in Snow Light Snow
11:17 AM 21.2 °F 13.6 °F 14.0 °F 74% 30.33 in 2.5 mi NNE 5.8 mph - 0.00 in Snow Light Snow
11:29 AM 19.4 °F 9.5 °F 14.0 °F 80% 30.32 in 1.2 mi NNE 8.1 mph - 0.00 in Snow Light Snow
11:44 AM 19.4 °F 12.8 °F 14.0 °F 80% 30.31 in 1.0 mi NNE 4.6 mph - 0.00 in Snow Light Snow
11:53 AM 19.9 °F 11.1 °F 14.0 °F 78% 30.35 in 1.0 mi NNE 6.9 mph - 0.00 in Snow Light Snow
12:01 PM 19.4 °F 8.6 °F 14.0 °F 80% 30.30 in 1.2 mi NE 9.2 mph - 0.00 in Snow Light Snow
12:13 PM 19.4 °F 12.8 °F 14.0 °F 80% 30.29 in 1.2 mi NE 4.6 mph - 0.00 in Snow Light Snow
12:29 PM 19.4 °F 12.8 °F 14.0 °F 80% 30.29 in 1.8 mi NE 4.6 mph - 0.00 in Snow Light Snow
12:36 PM 19.4 °F 10.4 °F 12.2 °F 74% 30.29 in 3.0 mi ENE 6.9 mph - 0.00 in Snow Light Snow
12:53 PM 19.9 °F 11.1 °F 12.9 °F 74% 30.33 in 9.0 mi ENE 6.9 mph - 0.00 in Snow Light Snow
1:02 PM 19.4 °F 9.5 °F 12.2 °F 74% 30.28 in 10.0 mi ENE 8.1 mph - 0.00 in   Overcast
1:53 PM 19.9 °F 10.1 °F 12.9 °F 74% 30.31 in 4.0 mi NE 8.1 mph - 0.00 in Snow Light Snow
2:05 PM 19.4 °F 8.6 °F 12.2 °F 74% 30.25 in 1.8 mi ENE 9.2 mph - 0.00 in Snow Light Snow
2:13 PM 19.4 °F 8.6 °F 12.2 °F 74% 30.25 in 1.0 mi NE 9.2 mph - 0.00 in Snow Light Snow
2:21 PM 19.4 °F 9.5 °F 12.2 °F 74% 30.25 in 1.5 mi ENE 8.1 mph - 0.00 in Snow Light Snow
2:29 PM 19.4 °F 11.5 °F 12.2 °F 74% 30.26 in 2.0 mi ENE 5.8 mph - 0.00 in Snow Light Snow
2:40 PM 19.4 °F 12.8 °F 14.0 °F 80% 30.25 in 2.5 mi Variable 4.6 mph - 0.00 in Snow Light Snow
2:49 PM 19.4 °F 12.8 °F 12.2 °F 74% 30.25 in 3.0 mi NE 4.6 mph - 0.00 in Snow Light Snow
2:53 PM 19.9 °F 13.4 °F 14.0 °F 78% 30.30 in 2.5 mi ENE 4.6 mph - 0.00 in Snow Light Snow
3:10 PM 19.4 °F 10.4 °F 14.0 °F 80% 30.24 in 1.8 mi NE 6.9 mph - 0.00 in Snow Light Snow
3:53 PM 19.9 °F 10.1 °F 14.0 °F 78% 30.28 in 1.2 mi ENE 8.1 mph - 0.00 in Snow Light Snow
4:08 PM 19.4 °F 11.5 °F 12.2 °F 74% 30.23 in 2.5 mi NE 5.8 mph - 0.00 in Snow Light Snow
4:18 PM 19.4 °F 11.5 °F 14.0 °F 80% 30.23 in 4.0 mi NE 5.8 mph - 0.00 in Snow Light Snow
4:53 PM 19.9 °F 13.4 °F 12.9 °F 74% 30.27 in 10.0 mi ENE 4.6 mph - 0.00 in   Overcast
5:53 PM 19.0 °F 12.3 °F 12.9 °F 77% 30.27 in 10.0 mi ENE 4.6 mph - N/A   Overcast
6:53 PM 19.0 °F 9.0 °F 12.0 °F 74% 30.27 in 10.0 mi ENE 8.1 mph - N/A   Overcast
7:53 PM 18.0 °F 12.7 °F 12.0 °F 78% 30.26 in 10.0 mi NE 3.5 mph - N/A   Overcast
8:53 PM 18.0 °F 7.7 °F 12.0 °F 78% 30.24 in 10.0 mi NE 8.1 mph - N/A   Overcast
9:53 PM 18.0 °F 9.8 °F 12.0 °F 78% 30.21 in 10.0 mi NE 5.8 mph - N/A   Overcast
10:53 PM 18.0 °F 7.7 °F 12.0 °F 78% 30.20 in 10.0 mi ENE 8.1 mph - N/A   Overcast
11:53 PM 18.0 °F 11.1 °F 10.9 °F 74% 30.18 in 10.0 mi NE 4.6 mph - N/A   Overcast